Weather History for CYLW - November, 2012

Change the Weather History Date:

Monday, November 5, 2012

  Actual Average Record
Temperature  
Mean Temperature 49 °F -  
Max Temperature 59 °F 44 °F 59 °F (2012)
Min Temperature 39 °F 28 °F 8 °F (2003)
Degree Days  
Heating Degree Days 16    
Moisture  
Dew Point 37 °F    
Average Humidity 62    
Maximum Humidity 94    
Minimum Humidity 25    
Precipitation  
Precipitation 0.00 in - - ()
Sea Level Pressure  
Sea Level Pressure 30.22 in    
Wind  
Wind Speed 5 mph ()    
Max Wind Speed 17 mph    
Max Gust Speed 17 mph    
Visibility 9.1 miles    
Events      
Averages and records for this station are not official NWS values.
T = Trace of Precipitation, MM = Missing Value Source: Averaged Metar Reports

Daily Weather History Graph

Daily Weather History Graph

Search for Another Location

Airport or City:

Trip Planner

Search our weather history database for the weather conditions in past years. The results will help you decide how hot, cold, wet, or windy it might be!

Date:

Astronomy

Nov. 05, 2012 Rise Set
Actual Time 6:54 AM PST 4:26 PM PST
Civil Twilight 6:20 AM PST 5:01 PM PST
Nautical Twilight 5:41 AM PST 5:39 PM PST
Astronomical Twilight 5:04 AM PST 6:17 PM PST
Moon 10:10 PM PST (11/5) 12:17 PM PST (11/5)
Length of Visible Light 10h 40m
Length of Day
9h 32m
Waning Gibbous, 62% of the Moon is Illuminated
Nov 5
Waning Gibbous
Nov 6
Last Quarter
Nov 13
New
Nov 20
First Quarter
Nov 28
Full

Hourly Weather History & Observations

Time (PST) Temp. Windchill Dew Point Humidity Pressure Visibility Wind Dir Wind Speed Gust Speed Precip Events Conditions
12:00 AM 53.6 °F - 50.0 °F 88% 30.11 in 9.0 mi East 5.8 mph - N/A   Overcast
1:00 AM 50.0 °F - 48.2 °F 94% 30.09 in 9.0 mi NE 5.8 mph - N/A   Mostly Cloudy
2:00 AM 51.8 °F - 48.2 °F 88% 30.08 in 9.0 mi Variable 2.3 mph - N/A   Overcast
3:00 AM 53.6 °F - 50.0 °F 88% 30.10 in 9.0 mi Variable 2.3 mph - N/A   Overcast
4:00 AM 50.0 °F - 48.2 °F 94% 30.13 in 9.0 mi Variable 2.3 mph - N/A   Overcast
5:00 AM 50.0 °F - 44.6 °F 82% 30.15 in 9.0 mi South 8.1 mph - N/A   Mostly Cloudy
6:00 AM 53.6 °F - 41.0 °F 62% 30.17 in 9.0 mi South 17.3 mph - N/A   Mostly Cloudy
7:00 AM 53.6 °F - 33.8 °F 47% 30.20 in 9.0 mi SSW 8.1 mph - N/A   Mostly Cloudy
8:00 AM 55.4 °F - 28.4 °F 36% 30.24 in 9.0 mi SW 11.5 mph 17.3 mph N/A   Partly Cloudy
9:00 AM 55.4 °F - 32.0 °F 41% 30.25 in 9.0 mi SW 5.8 mph - N/A   Partly Cloudy
10:00 AM 56 °F - 30 °F 25% 30.27 in 10 mi SSW 10.4 mph - -  
10:00 AM 57.2 °F - 30.2 °F 36% 30.27 in 9.0 mi SSW 9.2 mph - N/A   Partly Cloudy
11:00 AM 57.2 °F - 32.0 °F 38% 30.28 in 9.0 mi SSE 9.2 mph - N/A   Clear
12:00 PM 59.0 °F - 30.2 °F 34% 30.27 in 9.0 mi SSE 9.2 mph - N/A   Clear
1:00 PM 59.0 °F - 28.4 °F 31% 30.27 in 9.0 mi SSE 6.9 mph - N/A   Partly Cloudy
2:00 PM 59.0 °F - 30.2 °F 34% 30.28 in 9.0 mi South 4.6 mph - N/A   Clear
3:00 PM 57.2 °F - 30.2 °F 36% 30.26 in 9.0 mi SE 3.5 mph - N/A   Clear
4:00 PM 53 °F - 37 °F 43% 30.27 in 10 mi SSW 2.3 mph - -  
4:00 PM 51.8 °F - 37.4 °F 58% 30.27 in 9.0 mi Variable 2.3 mph - N/A   Clear
5:00 PM 46.4 °F - 35.6 °F 66% 30.26 in 9.0 mi East 2.3 mph - N/A   Overcast
6:00 PM 41.0 °F - 35.6 °F 81% 30.27 in 9.0 mi Calm Calm - N/A   Mostly Cloudy
7:00 PM 41.0 °F - 35.6 °F 81% 30.28 in 9.0 mi Variable 2.3 mph - N/A   Scattered Clouds
8:00 PM 39.2 °F 35.9 °F 35.6 °F 87% 30.26 in 9.0 mi NE 4.6 mph - N/A   Mostly Cloudy
9:00 PM 44.6 °F 42.2 °F 35.6 °F 71% 30.25 in 9.0 mi NNE 4.6 mph - N/A   Overcast
10:00 PM 44 °F - 38 °F 72% 30.22 in 10 mi NW 1.2 mph - -  
10:00 PM 44.6 °F - 37.4 °F 76% 30.22 in 9.0 mi Calm Calm - N/A   Mostly Cloudy
11:00 PM 42.8 °F 41.1 °F 37.4 °F 81% 30.22 in 9.0 mi WNW 3.5 mph - N/A   Overcast